Deming, NM

8:21 PM MDT on April 28, 2017 (GMT -0600)
Deming Municipal

Weather History for KDMN - October, 2012

Change the Weather History Date:

Monday, October 8, 2012

  Actual Average Record
Temperature  
Mean Temperature 65 °F 65 °F  
Max Temperature 84 °F 81 °F 89 °F (1956)
Min Temperature 46 °F 49 °F 34 °F (2011)
Growing Degree Days 15 (Base 50)    
Moisture  
Dew Point 36 °F    
Average Humidity 43    
Maximum Humidity 71    
Minimum Humidity 15    
Precipitation  
Precipitation 0.00 in 0.04 in 0.52 in (1985)
Month to date precipitation 0.00 0.30  
Year to date precipitation 3.71 9.19  
Sea Level Pressure  
Sea Level Pressure 29.91 in    
Wind  
Wind Speed 7 mph (NW)    
Max Wind Speed 18 mph    
Max Gust Speed 23 mph    
Visibility 10 miles    
Events      
T = Trace of Precipitation, MM = Missing Value Source: NWS Daily Summary

Daily Weather History Graph

Daily Weather History Graph

Search for Another Location

Airport or City:

Trip Planner

Search our weather history database for the weather conditions in past years. The results will help you decide how hot, cold, wet, or windy it might be!

Date:

Astronomy

Oct. 08, 2012 Rise Set
Actual Time 7:09 AM MDT 6:46 PM MDT
Civil Twilight 6:45 AM MDT 7:10 PM MDT
Nautical Twilight 6:16 AM MDT 7:38 PM MDT
Astronomical Twilight 5:48 AM MDT 8:07 PM MDT
Moon 12:14 AM MDT (10/8) 2:16 PM MDT (10/8)
Length of Visible Light 12h 25m
Length of Day
11h 36m
Last Quarter, 46% of the Moon is Illuminated
Oct 8
Last Quarter
Oct 15
New
Oct 21
First Quarter
Oct 29
Full
Nov 6
Last Quarter

Hourly Weather History & Observations

Time (MDT) Temp. Dew Point Humidity Pressure Visibility Wind Dir Wind Speed Gust Speed Precip Events Conditions
12:53 AM 55.0 °F 37.9 °F 53% 29.92 in 10.0 mi North 5.8 mph - N/A   Clear
1:53 AM 55.0 °F 39.0 °F 55% 29.93 in 10.0 mi NE 8.1 mph - N/A   Clear
2:53 AM 52.0 °F 37.9 °F 59% 29.93 in 10.0 mi NE 5.8 mph - N/A   Clear
3:53 AM 52.0 °F 39.0 °F 61% 29.91 in 10.0 mi NNE 5.8 mph - N/A   Clear
4:53 AM 50.0 °F 37.9 °F 63% 29.93 in 10.0 mi ENE 6.9 mph - N/A   Clear
5:53 AM 46.9 °F 37.9 °F 71% 29.94 in 10.0 mi NE 5.8 mph - N/A   Clear
6:53 AM 46.9 °F 37.9 °F 71% 29.97 in 10.0 mi NE 5.8 mph - N/A   Clear
7:53 AM 50.0 °F 39.0 °F 66% 29.99 in 10.0 mi ENE 3.5 mph - N/A   Clear
8:53 AM 57.9 °F 41.0 °F 53% 30.00 in 10.0 mi East 6.9 mph - N/A   Clear
9:53 AM 63.0 °F 41.0 °F 45% 30.00 in 10.0 mi Calm Calm - N/A   Clear
10:53 AM 66.9 °F 41.0 °F 39% 29.99 in 10.0 mi Calm Calm - N/A   Clear
11:53 AM 73.0 °F 39.9 °F 30% 29.96 in 10.0 mi Variable 3.5 mph - N/A   Clear
12:53 PM 73.9 °F 39.0 °F 28% 29.93 in 10.0 mi SSW 5.8 mph - N/A   Clear
1:53 PM 79.0 °F 37.0 °F 22% 29.89 in 10.0 mi West 9.2 mph - N/A   Clear
2:53 PM 82.0 °F 33.1 °F 17% 29.85 in 10.0 mi WSW 10.4 mph 19.6 mph N/A   Clear
3:53 PM 84.0 °F 32.0 °F 15% 29.83 in 10.0 mi WSW 9.2 mph - N/A   Clear
4:53 PM 82.9 °F 30.9 °F 15% 29.82 in 10.0 mi West 15.0 mph 20.7 mph N/A   Clear
5:53 PM 82.0 °F 30.0 °F 15% 29.83 in 10.0 mi West 10.4 mph - N/A   Clear
6:53 PM 77.0 °F 28.0 °F 17% 29.85 in 10.0 mi West 9.2 mph - N/A   Clear
8:53 PM 66.9 °F 30.0 °F 25% 29.87 in 10.0 mi West 5.8 mph - N/A   Clear
9:53 PM 63.0 °F 28.9 °F 28% 29.89 in 10.0 mi NNW 6.9 mph - N/A   Clear
10:53 PM 60.1 °F 28.9 °F 31% 29.90 in 10.0 mi WNW 8.1 mph - N/A   Clear
11:53 PM 59.0 °F 30.0 °F 33% 29.89 in 10.0 mi West 5.8 mph - N/A   Clear